Location: Unspecified
(0.0000°N, 0.0000°E)
Time: 22:46:02
(UTC+00:00)

Vanguard 1 - Pass Details

Date: 10 December 2017
Orbit: 649 x 3834 km, 34.3° (Epoch: 18 January)

Event Time Altitude Azimuth Distance (km) Brightness Sun altitude
Rises 04:49:47 0° 222° (SW) 6,543 14.1 -14.5°
Reaches altitude 10° 04:53:49 10° 217° (SW) 5,874 13.9 -13.6°
Maximum altitude 05:13:40 55° 143° (SE) 4,266 13.6 -9.0°
Drops below altitude 10° 05:35:45 10° 70° (ENE) 6,524 15.0 -3.9°
Sets 05:40:26 0° 66° (ENE) 7,277 15.2 -2.8°
